Terminal Aerodrome Forecast
Issued by NWS Quad Cities IA IL

Home | Current Version | Previous Version | Text Only | Print | Product List | Glossary On
Versions: 1 2 3 4 5 6 7 8 9 10 11 12 13 14 15
000
FTUS43 KDVN 211130
TAFDBQ
TAF
KDBQ 211130Z 2112/2212 29007KT P6SM SCT015
     FM211600 31012KT P6SM SCT040
     FM220000 28005KT P6SM SKC=

USA.gov is the U.S. government's official web portal to all federal, state and local government web resources and services.